[[{"header":{"parameterUnit":"m.s-1","parameterCategory":1,"la1":30.2991,"la2":30.254,"lo1":-89.0895,"lo2":-89.0444,"dy":0.0017,"dx":0.0017,"nx":28,"ny":28,"refTime":"2024-03-16T21:00:00:Z","depth":0,"parameterNumber":2,"parameterNumberName":"U-component_of_WINDS"},"data":[0,0,0,0,0,0,0,0,0,0,0,0,0,0,0,0,0,0,0,0,0,0,0,0,0,0,0,0,0,0,0,0,0,0,0,0,0,0,0,0,0,0,0,0,0,0,0,0,0,0,0,0,0,0,0,0,0,0,-0.5606,-0.5607,0,-0.5707,-0.5708,-0.5709,-0.5734,-0.5734,-0.5733,-0.5732,-0.5838,-0.5841,-0.5844,0,0,0,0,0,0,0,0,0,0,0,0,0,-0.5437,-0.544,-0.5606,-0.5607,-0.5608,-0.5706,-0.5708,-0.5709,-0.5734,-0.5734,-0.5733,-0.5732,-0.5837,-0.5841,-0.5845,0,0,0,0,0,0,0,0,0,0,0,0,0,-0.5521,-0.5441,-0.5606,-0.5633,-0.5636,-0.5706,-0.5708,-0.571,-0.5734,-0.5733,-0.5733,-0.5732,-0.5835,-0.584,-0.5845,-0.5896,0,0,-0.5861,-0.5863,0,0,0,0,0,0,0,0,-0.5516,-0.5527,-0.5627,-0.5631,-0.5635,-0.5707,-0.5687,-0.5772,-0.5735,-0.5697,-0.5732,-0.5731,-0.5795,-0.5803,-0.5825,-0.5901,-0.5906,-0.5861,-0.5865,-0.5867,-0.5868,0,0,0,0,0,0,0,-0.551,-0.5523,-0.5646,-0.5629,-0.5633,-0.564,-0.5651,-0.5703,-0.575,-0.57,-0.5702,-0.5714,-0.5797,-0.582,-0.5827,-0.5907,-0.5861,-0.5866,-0.5869,-0.5871,-0.603,-0.6031,0,0,0,0,0,0,-0.55,-0.5518,-0.5643,-0.5649,-0.5572,-0.5644,-0.5656,-0.5685,-0.575,-0.5759,-0.5715,-0.5715,-0.5811,-0.5821,-0.5831,-0.5895,-0.5867,-0.5871,-0.5874,-0.6029,-0.603,-0.6031,0,0,0,0,0,0,-0.5496,-0.5511,-0.5639,-0.5584,-0.5601,-0.5648,-0.568,-0.5687,-0.571,-0.5761,-0.5769,-0.5729,-0.5811,-0.5824,-0.5879,-0.5899,-0.5874,-0.5878,-0.6027,-0.6029,-0.6031,-0.6022,0,0,0,0,0,0,-0.5491,-0.5509,-0.5529,-0.5584,-0.5604,-0.5685,-0.5681,-0.569,-0.5718,-0.5719,-0.5776,-0.5785,-0.5811,-0.5872,-0.5885,-0.5905,-0.5882,-0.6026,-0.6028,-0.603,-0.6021,-0.6023,-0.6025,0,0,0,0,0,-0.5485,-0.5523,-0.553,-0.5545,-0.5629,-0.5686,-0.5697,-0.5726,-0.572,-0.574,-0.5772,-0.5783,-0.5894,-0.5877,-0.5892,-0.5914,-0.6025,-0.6027,-0.603,-0.602,-0.6023,-0.6025,0,0,0,0,0,0,-0.547,-0.5531,-0.5539,-0.5596,-0.5636,-0.569,-0.5717,-0.5728,-0.5771,-0.577,-0.5805,-0.5817,-0.5871,-0.5898,-0.5878,-0.5966,-0.5959,-0.5965,-0.5947,-0.595,-0.5952,-0.5945,-0.5887,0,0,0,0,0,-0.5473,-0.5514,-0.5565,-0.5611,-0.563,-0.567,-0.5696,-0.5714,-0.5757,-0.5774,-0.581,-0.5852,-0.5896,-0.5924,-0.5968,-0.6024,-0.6037,-0.6047,-0.6049,-0.6051,-0.6056,-0.6087,-0.6092,-0.604,-0.604,-0.604,0,0,-0.5481,-0.5519,-0.5543,-0.5609,-0.5641,-0.5683,-0.5684,-0.5728,-0.5759,-0.5781,-0.5835,-0.5863,-0.5912,-0.5968,-0.5994,-0.5992,-0.6072,-0.6054,-0.6055,-0.6059,-0.609,-0.6095,-0.6099,-0.6041,-0.6041,-0.6041,0,0,-0.5516,-0.5549,-0.559,-0.5622,-0.5671,-0.5697,-0.5707,-0.5759,-0.5778,-0.5833,-0.585,-0.5887,-0.5963,-0.5996,-0.6023,-0.6068,-0.608,-0.6082,-0.6094,-0.6124,-0.6128,-0.6132,-0.6148,-0.6153,-0.6086,-0.6086,-0.6086,0,-0.552,-0.5582,-0.561,-0.5653,-0.5681,-0.5701,-0.5743,-0.5773,-0.5834,-0.5853,-0.585,-0.5944,-0.5978,-0.6041,-0.6052,-0.6073,-0.6086,-0.6076,-0.6125,-0.6129,-0.6133,-0.6149,-0.6154,-0.6086,-0.6086,-0.6086,-0.6086,0,-0.5584,-0.5627,-0.5654,-0.5711,-0.5742,-0.5785,-0.5819,-0.5847,-0.5862,-0.5889,-0.5944,-0.5985,-0.6037,-0.6053,-0.6069,-0.6119,-0.6116,-0.6118,-0.6112,-0.6137,-0.6153,-0.6159,-0.6086,-0.6086,-0.6086,-0.6086,0,0,-0.5614,-0.5684,-0.5694,-0.572,-0.5774,-0.5808,-0.5851,-0.59,-0.5923,-0.5964,-0.6001,-0.6063,-0.6065,-0.6096,-0.6115,-0.6141,-0.6174,-0.614,-0.6142,-0.6145,-0.6231,-0.6229,-0.6235,-0.6181,-0.6182,-0.6183,-0.6226,0,-0.5656,-0.5733,-0.5758,-0.5822,-0.5861,-0.588,-0.5917,-0.5954,-0.5979,-0.6017,-0.6045,-0.6089,-0.6088,-0.6106,-0.6133,-0.6164,-0.6191,-0.6161,-0.6216,-0.6217,-0.6204,-0.6243,-0.6242,-0.6281,-0.6233,-0.6234,-0.6234,0,-0.5716,-0.5756,-0.5823,-0.5871,-0.5889,-0.5922,-0.5968,-0.6004,-0.6046,-0.6062,-0.6095,-0.6112,-0.6157,-0.6147,-0.621,-0.6189,-0.6212,-0.6231,-0.6233,-0.624,-0.6228,-0.6251,-0.6294,-0.63,-0.6244,-0.6243,-0.6243,0,-0.5731,-0.5802,-0.5851,-0.5872,-0.593,-0.5952,-0.5977,-0.6018,-0.6046,-0.6087,-0.6105,-0.615,-0.6175,-0.621,-0.6239,-0.6229,-0.6299,-0.6291,-0.6314,-0.6313,-0.6329,-0.6328,-0.6376,-0.6343,-0.6343,-0.6343,-0.6343,0,-0.5776,-0.5816,-0.5858,-0.5889,-0.5934,-0.5963,-0.6007,-0.6033,-0.6069,-0.6105,-0.6124,-0.6157,-0.6192,-0.623,-0.6253,-0.6301,-0.6312,-0.6327,-0.6333,-0.6326,-0.6324,-0.6342,-0.634,-0.6344,-0.6344,-0.6344,-0.6343,0,-0.5801,-0.5831,-0.5886,-0.5934,-0.5948,-0.5979,-0.6021,-0.6051,-0.6076,-0.6121,-0.6133,-0.6173,-0.6218,-0.6249,-0.6308,-0.6323,-0.6375,-0.638,-0.636,-0.6363,-0.6384,-0.6381,-0.6446,-0.6456,-0.6416,-0.6416,-0.6417,0,-0.5828,-0.5859,-0.591,-0.5935,-0.596,-0.6,-0.6027,-0.6056,-0.6084,-0.6133,-0.6157,-0.6203,-0.6242,-0.6313,-0.6347,-0.6392,-0.6399,-0.6418,-0.6406,-0.6397,-0.6399,-0.6397,-0.64,-0.642,-0.6421,-0.6421,-0.6421,0,-0.5872,-0.5885,-0.5923,-0.5967,-0.5999,-0.6035,-0.6071,-0.609,-0.6125,-0.6156,-0.6202,-0.6231,-0.629,-0.6335,-0.6383,-0.6409,-0.6421,-0.6424,-0.6432,-0.6426,-0.6413,-0.642,-0.6366,-0.6423,-0.6423,-0.6423,-0.6423,-0.6423,-0.5899,-0.5927,-0.5967,-0.6009,-0.6039,-0.6072,-0.6102,-0.613,-0.6169,-0.6218,-0.6232,-0.628,-0.632,-0.6385,-0.6411,-0.6449,-0.6447,-0.6458,-0.6461,-0.6464,-0.6463,-0.6406,-0.6457,-0.6457,-0.6457,-0.6457,-0.6457,0,-0.5944,-0.597,-0.6009,-0.6058,-0.6091,-0.6097,-0.6137,-0.6165,-0.6206,-0.6242,-0.6279,-0.6331,-0.6374,-0.6411,-0.6456,-0.6479,-0.6485,-0.649,-0.6489,-0.6494,-0.6462,-0.6451,-0.6484,-0.6484,-0.6484,-0.6484,-0.6484,-0.6484,-0.5971,-0.6019,-0.6036,-0.6099,-0.6125,-0.617,-0.6192,-0.6223,-0.6252,-0.6308,-0.6344,-0.6367,-0.6404,-0.6451,-0.6491,-0.6501,-0.6517,-0.652,-0.6531,-0.65,-0.6497,-0.6494,-0.6484,-0.6523,-0.6523,-0.656,-0.656,-0.656]},{"header":{"parameterUnit":"m.s-1","parameterCategory":1,"la1":30.2991,"la2":30.254,"lo1":-89.0895,"lo2":-89.0444,"dy":0.0017,"dx":0.0017,"nx":28,"ny":28,"refTime":"2024-03-16T21:00:00:Z","depth":0,"parameterNumber":3,"parameterNumberName":"V-component_of_WINDS"},"data":[0,0,0,0,0,0,0,0,0,0,0,0,0,0,0,0,0,0,0,0,0,0,0,0,0,0,0,0,0,0,0,0,0,0,0,0,0,0,0,0,0,0,0,0,0,0,0,0,0,0,0,0,0,0,0,0,0,0,-6.9946,-6.9947,0,-7.0078,-7.0079,-7.008,-7.0016,-7.0012,-7.0009,-7.0006,-7.0134,-7.0141,-7.0147,0,0,0,0,0,0,0,0,0,0,0,0,0,-6.9633,-6.9639,-6.9946,-6.9947,-6.9949,-7.0077,-7.0079,-7.0081,-7.0016,-7.0012,-7.0008,-7.0004,-7.0132,-7.014,-7.0148,0,0,0,0,0,0,0,0,0,0,0,0,0,-6.9767,-6.9641,-6.9946,-6.9932,-6.9933,-7.0077,-7.0079,-7.0081,-7.0017,-7.0012,-7.0007,-7.0002,-7.013,-7.0139,-7.0149,-7.0312,0,0,-7.0179,-7.0183,0,0,0,0,0,0,0,0,-6.9759,-6.9778,-6.9933,-6.9934,-6.9934,-7.0025,-7.0016,-7.0158,-7.0018,-6.9985,-7.0005,-7.0,-7.0102,-7.0114,-7.0149,-7.0318,-7.0324,-7.018,-7.0186,-7.019,-7.0193,0,0,0,0,0,0,0,-6.975,-6.9772,-6.9998,-6.9935,-6.9936,-6.9918,-6.9932,-7.0043,-7.007,-6.9987,-6.9983,-7.0,-7.0101,-7.014,-7.0152,-7.0325,-7.018,-7.0189,-7.0195,-7.0199,-7.0634,-7.064,0,0,0,0,0,0,-6.9742,-6.9765,-6.9993,-7.0002,-6.9833,-6.9928,-6.9943,-7.0001,-7.0069,-7.0074,-7.0004,-6.9996,-7.0125,-7.014,-7.0156,-7.0352,-7.019,-7.02,-7.0205,-7.0629,-7.0635,-7.0642,0,0,0,0,0,0,-6.9736,-6.9763,-6.9988,-6.9882,-6.991,-6.9939,-7.0004,-7.0006,-7.0045,-7.0081,-7.0085,-7.0039,-7.0122,-7.0142,-7.0274,-7.0355,-7.0204,-7.0213,-7.0622,-7.0631,-7.0639,-7.0745,0,0,0,0,0,0,-6.9727,-6.9761,-6.9825,-6.9884,-6.9916,-7.0106,-7.0009,-7.0012,-7.0063,-7.0054,-7.0115,-7.012,-7.012,-7.026,-7.0284,-7.0366,-7.0221,-7.0615,-7.0626,-7.0636,-7.0734,-7.0756,-7.0774,0,0,0,0,0,-6.9716,-6.9848,-6.9829,-6.9856,-6.9996,-7.0111,-7.0129,-7.0127,-7.007,-7.0133,-7.0156,-7.0119,-7.0342,-7.0274,-7.0301,-7.0387,-7.061,-7.0623,-7.0635,-7.0725,-7.0751,-7.0774,0,0,0,0,0,0,-6.9795,-6.9856,-6.9835,-6.999,-7.0046,-7.01,-7.018,-7.0155,-7.0227,-7.0215,-7.0208,-7.0222,-7.0359,-7.0386,-7.0308,-7.0548,-7.0467,-7.0486,-7.0526,-7.0552,-7.0571,-7.0562,-7.0229,0,0,0,0,0,-6.9831,-6.9922,-6.9968,-7.0101,-7.0131,-7.0151,-7.0201,-7.0195,-7.0251,-7.0274,-7.0307,-7.0362,-7.0445,-7.0499,-7.0577,-7.0737,-7.0749,-7.081,-7.083,-7.0846,-7.0862,-7.0949,-7.0976,-7.0683,-7.0683,-7.0683,0,0,-6.9905,-6.995,-7.0007,-7.0118,-7.0161,-7.0253,-7.0171,-7.0272,-7.034,-7.0289,-7.0416,-7.0442,-7.0503,-7.065,-7.0716,-7.0676,-7.0946,-7.0862,-7.0875,-7.0882,-7.0965,-7.0992,-7.1017,-7.0692,-7.069,-7.0689,0,0,-7.0089,-7.0131,-7.0247,-7.0292,-7.0359,-7.0371,-7.0399,-7.0457,-7.0473,-7.0601,-7.0565,-7.0645,-7.0787,-7.0832,-7.0874,-7.1075,-7.1042,-7.11,-7.1205,-7.1289,-7.1313,-7.1333,-7.1405,-7.1431,-7.1116,-7.1116,-7.1116,0,-7.0172,-7.0312,-7.0309,-7.0414,-7.0463,-7.0424,-7.054,-7.0583,-7.0671,-7.0705,-7.066,-7.0839,-7.0876,-7.1033,-7.1083,-7.1117,-7.1148,-7.1093,-7.131,-7.133,-7.1349,-7.1418,-7.1445,-7.1123,-7.1122,-7.1121,-7.1121,0,-7.0412,-7.0509,-7.0594,-7.0683,-7.0741,-7.0851,-7.0863,-7.0923,-7.0912,-7.0928,-7.1059,-7.1103,-7.119,-7.1226,-7.1215,-7.1382,-7.1356,-7.131,-7.1229,-7.1384,-7.1448,-7.1474,-7.1132,-7.113,-7.1128,-7.1126,0,0,-7.0648,-7.0735,-7.0766,-7.0806,-7.0877,-7.0951,-7.1058,-7.1145,-7.1197,-7.1258,-7.1347,-7.1469,-7.1428,-7.1475,-7.1469,-7.1543,-7.1699,-7.1488,-7.1489,-7.1526,-7.1886,-7.192,-7.1951,-7.1678,-7.1683,-7.1687,-7.1881,0,-7.0837,-7.1028,-7.1028,-7.1203,-7.1293,-7.1256,-7.1349,-7.1402,-7.1421,-7.1497,-7.1516,-7.1604,-7.1542,-7.1571,-7.1643,-7.1665,-7.1771,-7.1651,-7.176,-7.1764,-7.1747,-7.1984,-7.2021,-7.2202,-7.1906,-7.191,-7.1913,0,-7.1083,-7.1155,-7.134,-7.1398,-7.1436,-7.152,-7.16,-7.1674,-7.1733,-7.1741,-7.1794,-7.1776,-7.1884,-7.1799,-7.1946,-7.1864,-7.1908,-7.1926,-7.1933,-7.1944,-7.1849,-7.2001,-7.2259,-7.2287,-7.1953,-7.1949,-7.1947,0,-7.1238,-7.1381,-7.1511,-7.1546,-7.1617,-7.1677,-7.1709,-7.1762,-7.1815,-7.1883,-7.1917,-7.1996,-7.204,-7.2101,-7.2105,-7.2043,-7.2254,-7.2169,-7.2262,-7.2263,-7.2309,-7.2306,-7.2578,-7.2337,-7.2336,-7.2336,-7.2335,0,-7.1449,-7.1564,-7.1582,-7.1661,-7.1788,-7.1786,-7.1911,-7.1937,-7.1985,-7.2068,-7.204,-7.2118,-7.2117,-7.2196,-7.2199,-7.2321,-7.234,-7.2349,-7.2348,-7.2352,-7.2351,-7.2381,-7.2369,-7.2343,-7.2341,-7.234,-7.2339,0,-7.1644,-7.1661,-7.18,-7.1856,-7.1873,-7.1964,-7.2011,-7.2086,-7.2102,-7.2207,-7.2231,-7.2256,-7.2347,-7.2357,-7.2462,-7.2464,-7.2611,-7.2596,-7.2592,-7.259,-7.2684,-7.2675,-7.2985,-7.3026,-7.2757,-7.276,-7.2762,0,-7.1778,-7.1866,-7.1933,-7.1987,-7.2023,-7.2111,-7.2165,-7.2166,-7.2223,-7.2297,-7.2363,-7.2451,-7.2523,-7.267,-7.2696,-7.2776,-7.2764,-7.2867,-7.2775,-7.2776,-7.2766,-7.2761,-7.277,-7.2884,-7.2887,-7.289,-7.2892,0,-7.2015,-7.2019,-7.2099,-7.2183,-7.2248,-7.2313,-7.2374,-7.242,-7.2428,-7.2493,-7.2588,-7.2643,-7.2752,-7.284,-7.2919,-7.2949,-7.2923,-7.292,-7.2946,-7.2951,-7.2946,-7.2951,-7.2641,-7.2913,-7.2911,-7.291,-7.2908,-7.2908,-7.2184,-7.226,-7.232,-7.241,-7.2456,-7.2514,-7.2588,-7.2614,-7.2693,-7.2784,-7.2778,-7.2883,-7.2937,-7.3041,-7.3078,-7.3158,-7.3123,-7.3161,-7.317,-7.318,-7.319,-7.2933,-7.3172,-7.3171,-7.3171,-7.317,-7.317,0,-7.242,-7.2456,-7.2539,-7.2627,-7.2697,-7.2667,-7.2733,-7.2794,-7.2886,-7.2941,-7.3013,-7.3121,-7.3206,-7.3239,-7.3322,-7.338,-7.337,-7.3402,-7.3398,-7.3405,-7.3216,-7.3185,-7.3409,-7.3409,-7.3409,-7.3409,-7.3409,-7.3409,-7.2551,-7.2679,-7.269,-7.2841,-7.2875,-7.2979,-7.302,-7.3072,-7.3116,-7.3239,-7.3311,-7.3332,-7.3378,-7.3465,-7.3541,-7.3548,-7.358,-7.3619,-7.362,-7.3443,-7.3419,-7.3396,-7.3367,-7.3625,-7.3626,-7.3804,-7.3805,-7.3806]}]]